This is the latest recevied weather packets stored in our database for station/object SQ6IUS-13. If no packets are shown the sender has not sent any weather packets the latest 10 day(s).
| Time | Temp. | Humidity | Pressure | Rain* | Wind** | Luminosity | Snow |
|---|---|---|---|---|---|---|---|
| 1777031085 | 15° C | 100% | 1017.5 hPa | - | - | - | - |
| 1777030187 | 13.33° C | 100% | 1017.6 hPa | - | - | - | - |
| 1777028398 | 14.44° C | 100% | 1017.6 hPa | - | - | - | - |
| 1777027489 | 14.44° C | 100% | 1017.7 hPa | - | - | - | - |
| 1777025692 | 11.67° C | 100% | 1017.9 hPa | - | - | - | - |
| 1777024793 | 11.11° C | 100% | 1017.8 hPa | - | - | - | - |
| 1777023894 | 11.11° C | 100% | 1017.6 hPa | - | - | - | - |
| 1777022995 | 12.22° C | 100% | 1017.8 hPa | - | - | - | - |
| 1777021197 | 10° C | 100% | 1018 hPa | - | - | - | - |
| 1777019398 | 10° C | 100% | 1017.8 hPa | - | - | - | - |
| 1777018500 | 10° C | 100% | 1017.7 hPa | - | - | - | - |
| 1777017600 | 10° C | 100% | 1017.5 hPa | - | - | - | - |
| 1777016704 | 10° C | 100% | 1017.5 hPa | - | - | - | - |
| 1777015802 | 10° C | 100% | 1017.5 hPa | - | - | - | - |
| 1777014904 | 10° C | 100% | 1017.5 hPa | - | - | - | - |
| 1777014004 | 9.44° C | 100% | 1017.5 hPa | - | - | - | - |
| 1777013107 | 9.44° C | 100% | 1017.5 hPa | - | - | - | - |
| 1777011305 | 7.22° C | 100% | 1017.6 hPa | - | - | - | - |
| 1777010404 | 6.67° C | 100% | 1017.6 hPa | - | - | - | - |
| 1777009504 | 6.11° C | 100% | 1017.6 hPa | - | - | - | - |
| 1777008604 | 5.56° C | 100% | 1017.6 hPa | - | - | - | - |
| 1777007705 | 5° C | 100% | 1017.7 hPa | - | - | - | - |
| 1777005905 | 3.33° C | 100% | 1017.8 hPa | - | - | - | - |
| 1777005005 | 2.78° C | 100% | 1017.6 hPa | - | - | - | - |
| 1777004103 | 2.22° C | 100% | 1017.6 hPa | - | - | - | - |
* Rain since midnight (hover to see other rain measurements)
** Current wind speed in m/s (hover to see current wind gust speed)